Hit Tracker is now ESPN Home Run Tracker! Hit Tracker founder Greg Rybarczyk is now collaborating with the ESPN Stats & Information Group to continue tracking all MLB home runs, and helping baseball fans know "How Far It Really Went!™" Please credit any information on this site to ESPN Stats & Information Group. For more information and analysis on home runs, please contact founder Greg Rybarczyk. E-Mail ESPN Home Run Tracker
Main Page | Ballparks | Park Overlays | Glossary | Highlight Homers | Feedback | Bio | 3 Types of HR's | AAA Home Run Derby Last Updated: June 25, 2016, 11:20 pm PST
If you want to know "How Far It Really Went!", then you've come to the right place! Welcome to the ESPN Home Run Tracker, where you can find accurate, transparently verifiable distances for every home run hit in MLB games. Please also check out the ESPN MLB Scoreboard throughout the 2016 season! Contact us at grybar@hittrackeronline.com.
Season:
Ballpark detail for Miller Park
Ballpark # of Home Runs HR per game Avg.
True
Distance
Avg.
Speed
Off
Bat
Avg.
Std.
Dist.
Miller Park 96 2.53 400.3 103.8 399.1

Scatter Plot of Home Runs Miller Park
 Overlay Ballpark:
Without range rings   With range rings

2016 Season Home Runs for Miller Park
Click headers to sort
Date Video Path Hitter Hitter
Team
Pitcher Pitcher
Team
INN ^ Ballpark Type/
Luck
True
Dist.
Speed
Off
Bat
Elev.
Angle
Horiz.
Angle
Apex Impact Due To: Std.
Dist.
#
Parks
Wind Temp. Alt.
04/08/16 Video View Gennett, Scooter MIL Feldman, Scott HOU 1 Miller Park ND 426 105.7 27.8 78.1 97 0 1 1 423 29
04/08/16 Video View Carter, Chris MIL Feldman, Scott HOU 1 Miller Park JE 420 105.4 23.0 86.8 75 0 0 0 419 25
04/10/16 Video View Altuve, Jose HOU Nelson, Jimmy MIL 1 Miller Park ND 443 111.0 26.8 106.3 96 0 -1 1 442 30
04/29/16 Video View Bour, Justin MIA Davies, Zach MIL 1 Miller Park PL 404 102.1 28.6 77.2 95 0 0 1 403 29
04/30/16 Video View Dietrich, Derek MIA Anderson, Chase MIL 1 Miller Park PL 403 104.0 27.5 71.6 86 0 -1 1 402 30
05/01/16 Video View Santana, Domingo MIL Koehler, Tom MIA 1 Miller Park JE 365 99.7 26.1 67.9 67 0 0 1 365 12
05/19/16 Video View Fowler, Dexter CHC Guerra, Junior MIL 1 Miller Park PL 363 100.3 34.7 72.9 128 -18 -2 2 380 30
05/27/16 Video View Duvall, Adam CIN Davies, Zach MIL 1 Miller Park PL 384 101.7 30.1 117.6 87 1 0 1 381 30
06/09/16 Video View Granderson, Curtis NYM Nelson, Jimmy MIL 1 Miller Park JE 384 105.1 23.5 70.5 62 0 0 0 383 24
06/25/16 Video View Carter, Chris MIL Gonzalez, Gio WSH 1 Miller Park PL 399 105.6 28.0 117.4 82 -1 2 2 397 30
04/04/16 Video View Gennett, Scooter MIL Bumgarner, Madison SF 2 Miller Park ND 406 106.7 28.8 63.4 90 0 -1 1 406 30
04/06/16 Video View Duffy, Matt SF Jungmann, Taylor MIL 2 Miller Park PL 429 106.3 24.6 95.5 85 0 0 0 429 29
04/30/16 Video View Hechavarria, Adeiny MIA Anderson, Chase MIL 2 Miller Park JE 390 103.4 22.2 98.8 62 0 0 0 390 4
05/04/16 Video View Perez, Hernan MIL Santiago, Hector LAA 2 Miller Park JE 383 99.5 27.8 74.2 82 0 0 1 382 22
05/29/16 Video View Bruce, Jay CIN Nelson, Jimmy MIL 2 Miller Park ND 404 107.9 26.8 61.1 78 1 1 1 402 30
05/31/16 Video View Lucroy, Jonathan MIL Leake, Mike STL 2 Miller Park JE 392 105.5 20.8 98.3 58 0 0 0 392 3
06/07/16 Video View Carter, Chris MIL Manaea, Sean OAK 2 Miller Park PL 432 109.4 20.8 88.2 69 0 0 0 432 27
06/11/16 Video View Cabrera, Asdrubal NYM Peralta, Wily MIL 2 Miller Park JE 380 99.4 26.1 104.6 72 1 1 1 378 5
06/11/16 Video View Carter, Chris MIL Verrett, Logan NYM 2 Miller Park PL 386 104.0 38.4 105.6 155 4 8 4 372 18
04/04/16 Video View Villar, Jonathan MIL Bumgarner, Madison SF 3 Miller Park JE 379 101.3 27.2 112.4 76 0 0 1 379 29
04/05/16 Video View Crawford, Brandon SF Nelson, Jimmy MIL 3 Miller Park PL 376 102.1 36.0 65.9 128 0 -2 3 375 29
04/06/16 Video View Carter, Chris MIL Samardzija, Jeff SF 3 Miller Park JE 389 100.2 26.1 78.7 78 0 0 1 389 16
04/09/16 Video View Rasmus, Colby HOU Peralta, Wily MIL 3 Miller Park JE 394 99.7 26.4 97.2 82 0 -1 1 393 6
04/23/16 Video View Braun, Ryan MIL Oberholtzer, Brett PHI 3 Miller Park PL 393 109.7 22.6 113.6 60 0 0 1 392 30
05/01/16 Video View Carter, Chris MIL Koehler, Tom MIA 3 Miller Park PL 428 106.0 26.0 81.8 91 0 0 1 428 30
05/03/16 Video View Carter, Chris MIL Tropeano, Nick LAA 3 Miller Park PL 433 109.5 20.9 91.7 69 0 0 0 433 26
05/15/16 Video View Carter, Chris MIL Vargas, Cesar SD 3 Miller Park PL 443 107.6 25.6 85.8 95 0 0 1 442 30
05/27/16 Video View Lucroy, Jonathan MIL Lamb, John CIN 3 Miller Park PL 419 104.5 29.1 102.8 103 1 0 2 417 30
06/11/16 Video View Braun, Ryan MIL Verrett, Logan NYM 3 Miller Park PL 423 104.9 23.8 91.7 78 0 1 0 422 25
04/23/16 Video View Franco, Maikel PHI Anderson, Chase MIL 4 Miller Park PL 379 101.2 28.8 116.1 81 0 0 1 378 30
04/24/16 Video View Braun, Ryan MIL Eickhoff, Jerad PHI 4 Miller Park PL 362 97.0 34.0 66.0 104 0 -1 2 361 25
04/30/16 Video View Stanton, Giancarlo MIA Anderson, Chase MIL 4 Miller Park ND 460 112.2 23.5 95.8 89 0 -1 1 459 30
05/01/16 Video View Carter, Chris MIL Ege, Cody MIA 4 Miller Park JE 375 110.4 22.2 127.0 53 0 0 0 374 30
05/17/16 Video View Lucroy, Jonathan MIL Hendricks, Kyle CHC 4 Miller Park PL 418 105.2 28.4 104.5 98 0 -1 1 417 30
05/19/16 Video View Carter, Chris MIL Hammel, Jason CHC 4 Miller Park PL 434 110.7 19.3 88.7 63 7 0 0 427 27
05/27/16 Video View Hill, Aaron MIL Lamb, John CIN 4 Miller Park PL 370 102.1 27.6 123.0 71 1 0 1 369 30
06/11/16 Video View Peralta, Wily MIL Verrett, Logan NYM 4 Miller Park PL 416 105.2 26.4 104.1 84 1 2 1 413 30
04/04/16 Video View Duffy, Matt SF Torres, Carlos MIL 5 Miller Park PL 380 101.7 35.6 110.6 128 0 -1 3 379 30
04/09/16 Video View Rasmus, Colby HOU Peralta, Wily MIL 5 Miller Park ND 431 108.3 28.7 73.3 104 0 -1 2 430 30
04/09/16 Video View White, Tyler HOU Peralta, Wily MIL 5 Miller Park JE 423 106.1 22.7 92.5 75 0 0 0 423 26
04/09/16 Video View Gennett, Scooter MIL Fister, Doug HOU 5 Miller Park PL 372 100.7 26.9 66.4 72 0 -1 1 372 24
04/10/16 Video View Tucker, Preston HOU Nelson, Jimmy MIL 5 Miller Park JE 389 104.4 21.7 99.7 60 0 0 0 388 4
04/22/16 Video View Franco, Maikel PHI Davies, Zach MIL 5 Miller Park PL 377 102.5 36.9 109.9 139 0 -1 3 375 30
05/01/16 Video View Ozuna, Marcell MIA Peralta, Wily MIL 5 Miller Park PL 393 101.1 30.5 108.0 99 0 0 2 391 30
05/03/16 Video View Carter, Chris MIL Tropeano, Nick LAA 5 Miller Park PL 417 106.3 34.3 101.3 143 0 0 3 414 30
05/03/16 Video View Lucroy, Jonathan MIL Tropeano, Nick LAA 5 Miller Park PL 397 105.2 25.4 109.8 73 0 0 1 396 30
05/14/16 Video View Myers, Wil SD Peralta, Wily MIL 5 Miller Park PL 373 99.2 27.3 70.3 75 0 0 1 372 20
05/14/16 Video View Kemp, Matt SD Peralta, Wily MIL 5 Miller Park PL 412 103.5 25.7 81.7 84 0 0 0 412 28
05/15/16 Video View Lucroy, Jonathan MIL Vargas, Cesar SD 5 Miller Park PL 435 105.3 27.6 91.4 104 0 0 2 434 29
05/27/16 Video View Hill, Aaron MIL Diaz, Dayan CIN 5 Miller Park PL 391 100.4 31.0 107.5 100 1 0 2 388 30
05/28/16 Video View Lucroy, Jonathan MIL Morris, A.J. CIN 5 Miller Park PL 387 99.0 34.0 99.7 122 -3 2 2 385 7
06/11/16 Video View Granderson, Curtis NYM Peralta, Wily MIL 5 Miller Park PL 390 109.8 22.2 65.7 57 0 1 1 388 29
06/24/16 Video View Broxton, Keon MIL Scherzer, Max WSH 5 Miller Park JE 385 97.4 30.2 100.1 96 0 0 1 383 4
04/09/16 Video View Nieuwenhuis, Kirk MIL Neshek, Pat HOU 6 Miller Park JE 366 107.8 20.8 67.2 49 0 0 0 366 9
04/20/16 Video View Arcia, Oswaldo MIN Nelson, Jimmy MIL 6 Miller Park ND 405 109.0 35.3 63.5 138 0 -2 4 403 30
04/20/16 Video View Rosario, Eddie MIN Nelson, Jimmy MIL 6 Miller Park JE 386 99.7 26.7 102.3 79 0 0 1 386 15
04/20/16 Video View Hill, Aaron MIL Pressly, Ryan MIN 6 Miller Park PL 401 103.5 29.6 110.0 96 0 -1 1 401 30
04/24/16 Video View Gennett, Scooter MIL Eickhoff, Jerad PHI 6 Miller Park JE 383 99.7 27.1 105.2 79 0 -1 1 383 22
04/24/16 Video View Presley, Alex MIL Neris, Hector PHI 6 Miller Park PL 388 104.9 23.7 72.1 65 0 0 0 387 25
04/29/16 Video View Bour, Justin MIA Boyer, Blaine MIL 6 Miller Park PL 364 97.8 36.2 72.2 124 0 -1 2 363 13
04/30/16 Video View Ozuna, Marcell MIA Capuano, Chris MIL 6 Miller Park PL 415 106.3 23.8 79.5 75 0 0 1 414 28
05/02/16 Video View Trout, Mike LAA Nelson, Jimmy MIL 6 Miller Park JE 410 100.8 28.5 89.0 99 0 -1 1 409 15
05/19/16 Video View Nieuwenhuis, Kirk MIL Hammel, Jason CHC 6 Miller Park PL 412 109.9 22.1 75.8 66 0 0 1 412 29
05/27/16 Video View Votto, Joey CIN Davies, Zach MIL 6 Miller Park JE 384 97.5 32.1 100.5 107 1 0 2 382 5
06/01/16 Video View Maldonado, Martin MIL Bowman, Matt STL 6 Miller Park PL 412 102.3 26.7 96.1 90 -2 1 1 411 24
06/07/16 Video View Carter, Chris MIL Manaea, Sean OAK 6 Miller Park PL 420 102.7 30.1 87.2 113 0 0 1 418 27
06/10/16 Video View Cespedes, Yoenis NYM Guerra, Junior MIL 6 Miller Park ND 433 108.9 22.5 96.3 74 -1 1 1 432 29
06/24/16 Video View Nieuwenhuis, Kirk MIL Scherzer, Max WSH 6 Miller Park PL 423 105.9 25.9 79.4 88 0 0 1 422 29
04/20/16 Video View Carter, Chris MIL Pressly, Ryan MIN 7 Miller Park JE 412 115.9 16.7 84.8 47 0 0 0 412 12
04/21/16 Video View Sano, Miguel MIN Torres, Carlos MIL 7 Miller Park PL 416 102.6 29.2 82.6 104 0 0 1 415 27
04/22/16 Video View Franco, Maikel PHI Capuano, Chris MIL 7 Miller Park PL 417 104.1 27.5 100.5 94 0 -1 1 416 30
04/30/16 Video View Perez, Hernan MIL Breslow, Craig MIA 7 Miller Park JE 413 101.3 29.4 91.1 106 0 -1 2 412 19
05/15/16 Video View Wallace, Brett SD Davies, Zach MIL 7 Miller Park JE 394 105.0 21.0 97.1 59 0 0 0 394 2
05/28/16 Video View Duvall, Adam CIN Blazek, Michael MIL 7 Miller Park PL 400 102.8 31.0 106.2 109 -7 2 2 403 30
05/30/16 Video View Holliday, Matt STL Marinez, Jhan MIL 7 Miller Park ND 456 113.5 25.1 104.6 91 1 1 2 453 30
06/07/16 Video View Butler, Billy OAK Davies, Zach MIL 7 Miller Park PL 404 100.5 30.5 97.7 107 0 0 2 402 21
06/11/16 Video View Gennett, Scooter MIL Bastardo, Antonio NYM 7 Miller Park JE 365 102.8 23.7 66.4 57 0 1 1 364 10
06/11/16 Video View Braun, Ryan MIL Bastardo, Antonio NYM 7 Miller Park PL/L 357 95.8 37.4 62.5 113 9 5 2 342 14
04/04/16 Video View Span, Denard SF Pena, Ariel MIL 8 Miller Park PL 379 100.1 29.7 67.0 87 0 -1 1 379 29
04/04/16 Video View Panik, Joe SF Pena, Ariel MIL 8 Miller Park ND 402 104.4 32.6 69.0 116 0 -1 2 401 30
04/04/16 Video View Posey, Buster SF Pena, Ariel MIL 8 Miller Park PL 424 105.9 23.4 93.4 79 0 0 1 424 26
04/08/16 Video View Braun, Ryan MIL Fields, Josh HOU 8 Miller Park PL 422 103.4 27.6 85.2 98 0 1 1 421 25
04/20/16 Video View Santana, Domingo MIL O'Rourke, Ryan MIN 8 Miller Park JE 378 100.5 26.3 71.9 73 0 0 1 378 21
04/21/16 Video View Dozier, Brian MIN Freeman, Sam MIL 8 Miller Park PL 384 101.3 33.6 113.2 112 0 0 2 382 30
04/23/16 Video View Carter, Chris MIL Hinojosa, Dalier PHI 8 Miller Park ND 421 105.2 28.6 102.7 101 0 0 2 420 30
05/04/16 Video View Trout, Mike LAA Thornburg, Tyler MIL 8 Miller Park JE 354 96.8 28.3 64.6 72 0 0 1 353 11
05/31/16 Video View Gyorko, Jedd STL Goforth, David MIL 8 Miller Park PL 392 99.6 29.4 103.6 93 0 0 1 390 26
04/08/16 Video View White, Tyler HOU Freeman, Sam MIL 9 Miller Park JE 388 101.2 25.9 75.8 75 0 0 1 387 22
04/23/16 Video View Herrera, Odubel PHI Jeffress, Jeremy MIL 9 Miller Park PL 400 99.7 28.4 96.1 94 0 -1 1 399 11
05/12/16 Video View Upton Jr., Melvin SD Thornburg, Tyler MIL 9 Miller Park PL 404 102.2 24.7 96.5 77 1 0 1 403 12
05/17/16 Video View Heyward, Jason CHC Anderson, Chase MIL 9 Miller Park JE 390 98.6 28.9 80.5 92 0 -1 1 389 10
05/17/16 Video View Bryant, Kris CHC Anderson, Chase MIL 9 Miller Park PL 374 99.9 34.5 114.2 113 0 -1 2 373 30
06/01/16 Video View Moss, Brandon STL Jeffress, Jeremy MIL 9 Miller Park PL 414 109.4 23.0 73.9 68 0 1 1 412 29
05/14/16 Video View Norris, Derek SD Capuano, Chris MIL 12 Miller Park PL 403 104.3 31.2 112.0 105 0 -1 2 402 30
05/14/16 Video View Upton Jr., Melvin SD Capuano, Chris MIL 12 Miller Park PL 440 111.7 19.9 90.8 67 0 0 0 440 28
05/14/16 Video View Lucroy, Jonathan MIL Villanueva, Carlos SD 12 Miller Park PL 388 98.8 32.9 100.7 115 0 -1 2 387 13


About HitTracker | Contact Us
© 2006-2016 HitTrackerOnline